Regional Weather Roundup
Issued by NWS

Home | Current Version | Previous Version | Graphics & Text | Print | Product List | Glossary On
Versions: 1 2 3 4 5 6 7 8 9 10 11 12 13 14 15 16 17 18 19 20 21 22 23 24 25 26 27 28 29 30 31 32 33 34 35 36 37 38 39 40 41 42 43 44 45 46 47 48 49 50
000
ASUS43 KLOT 290112
RWRIL

ILLINOIS REGIONAL WEATHER ROUNDUP
NATIONAL WEATHER SERVICE CHICAGO/ROMEOVILLE IL
800 PM CDT THU MAY 28 2015

NOTE: "FAIR" INDICATES FEW OR NO CLOUDS BELOW 12,000 FEET WITH NO
SIGNIFICANT WEATHER AND/OR OBSTRUCTIONS TO VISIBILITY.

* THESE STATIONS ARE NOT UNDER NWS QUALITY CONTROL. THEY ALSO MAY NOT
  REPORT WEATHER SUCH AS PRECIPITATION OR FOG.

ILZ001-002-007-009-015-016-024-290200-
NORTHWEST ILLINOIS

CITY           SKY/WX    TMP DP  RH WIND       PRES   REMARKS
MOLINE         CLOUDY    75  59  57 SE3       30.02F
STERLING*      MOCLDY    77  50  38 S3        30.05F
SAVANNA*       MOCLDY    77  51  39 S6        30.03F
$$

ILZ003-004-008-010-011-017-018-290200-
NORTH CENTRAL ILLINOIS

CITY           SKY/WX    TMP DP  RH WIND       PRES   REMARKS
ROCKFORD       MOCLDY    76  50  40 SE8       30.07F
FREEPORT*      PTCLDY    75  50  41 SE9       30.07F
ROCHELLE*      PTCLDY    74  54  48 SE9       30.07F
DE KALB*       PTCLDY    72  52  48 SE9       30.09S
PERU*          MOCLDY    78  46  31 SE7       30.06F
$$

ILZ005-006-012>014-019>023-290200-
NORTHEAST ILLINOIS

CITY           SKY/WX    TMP DP  RH WIND       PRES   REMARKS
CHICAGO-OHARE  MOCLDY    75  53  46 E10       30.09F
CHICAGO-MIDWAY MOCLDY    75  54  47 E12       30.09F
AURORA         PTCLDY    75  54  47 SE6       30.08F
LANSING*       PTCLDY    72  54  52 NE5       30.10F
JOLIET*        PTCLDY    77  57  50 E3        30.08F
WAUKEGAN       CLEAR     65  55  70 E3        30.10F
DUPAGE AIRPORT CLEAR     76  53  44 E8        30.08F
KANKAKEE*      PTCLDY    76  52  42 SE5       30.08F
WHEELING       CLEAR     72  53  51 E7        30.11F
MORRIS*        PTCLDY    77  55  46 E6        30.06F
ROMEOVILLE*    PTCLDY    75  53  45 E7        30.08F
NORTHERLY ISL    N/A     65  54  67 CALM        N/A
$$

LMZ740>746-290200-
SOUTHERN LAKE MICHIGAN

STATION/POSITION SKY/WX   TEMP    WIND        PRES    VSBY  WAVE
                          AIR SEA DIR/SP/G                  HT/PER
                          (F)     (DEG/KT/KT) (MB)    (MI)  (FT/S)
SOUTHERN BUOY              60 39   60/  6/  6 1020.6
HARRISON CRIB              62      70/ 14/ 15   N/A
BURNHAM HARBOR             65      60/  7       N/A
CALUMET HARBOR             63      80/  7/  9   N/A
BURNS HARBOR               63      70/  8/ 10 1020.3S
MICHIGAN CITY              61      30/  7/  8   N/A
MICHIGAN CITY 6N           59 55   60/  8/ 10   N/A           1
ST. JOSEPH                 67 59   80/  2/  4   N/A           1
$$

ILZ025>027-034>036-040-047-049-050-058-095>099-290200-
WEST-CENTRAL ILLINOIS

CITY           SKY/WX    TMP DP  RH WIND       PRES   REMARKS
QUINCY         CLOUDY    71  65  81 NW9       30.06R
GALESBURG*     CLOUDY    76  56  49 CALM      30.04F
MACOMB*        CLOUDY    75  62  64 S5        30.06S
JACKSONVILLE*  CLOUDY    73  69  86 CALM      30.06R
PITTSFIELD*    CLOUDY    69  66  89 CALM      30.06S
$$

ILZ028>032-037-038-041>044-048-051>054-059>061-290200-
CENTRAL ILLINOIS

CITY           SKY/WX    TMP DP  RH WIND       PRES   REMARKS
PONTIAC        MOCLDY    79  54  41 E5        30.07S
BLOOMINGTON    CLOUDY    78  59  52 SW6       30.08S
DECATUR        MOCLDY    78  62  57 S6        30.07S HX  80
PEORIA         CLOUDY    80  57  45 CALM      30.05S HX  80
LACON*         MOCLDY    75  57  53 SE3       30.04F
LINCOLN*       RAIN      74  65  72 SW6       30.04F
SPRINGFIELD    MOCLDY    72  67  84 CALM      30.07S
TAYLORVILLE    MOCLDY    75  64  69 SE5       30.07S
$$

ILZ033-039-045-046-055>057-062-063-290200-
EAST-CENTRAL ILLINOIS

CITY           SKY/WX    TMP DP  RH WIND       PRES   REMARKS
CHAMPAIGN      MOCLDY    78  61  55 S10       30.08R HX  80
DANVILLE*      MOCLDY    79  58  48 SE6       30.06S HX  80
RANTOUL*       MOCLDY    82  59  46 S6        30.08R HX  82
PARIS*         MOCLDY    79  62  55 SE6       30.10R HX  81
$$

ILZ079-100>102-290200-
SOUTHWEST ILLINOIS

CITY           SKY/WX    TMP DP  RH WIND       PRES   REMARKS
BELLEVILLE     CLEAR     76  65  68 SE6       30.04S
CAHOKIA*       CLEAR     79  64  60 S5        30.04S HX  81
SPARTA*        CLEAR     76  67  73 S10       30.07S
$$

ILZ064>066-069>071-074>076-080>082-084>086-088>090-092>094-290200-
SOUTH-CENTRAL ILLINOIS

CITY           SKY/WX    TMP DP  RH WIND       PRES   REMARKS
CARBONDALE     PTCLDY    75  66  73 S7        30.06F
CAIRO*         PTCLDY    76  67  71 S3        30.07S
EFFINGHAM*     PTCLDY    75  65  70 CALM      30.09S
MARION         PTCLDY    77  68  73 SW3       30.08S
MT. VERNON     MOCLDY    79  64  61 S3        30.08S HX  81
CENTRALIA*     MOCLDY    76  65  68 S5        30.07S
SALEM*         MOCLDY    82  64  56 S3        30.08S HX  83
METROPOLIS*    MOCLDY    80  68  67 CALM      30.07S HX  82
$$

ILZ067-068-072-073-078-083-087-091-290200-
SOUTHEAST ILLINOIS

CITY           SKY/WX    TMP DP  RH WIND       PRES   REMARKS
LAWRENCEVILLE  PTCLDY    76  65  68 SE7       30.09S
FLORA*         PTCLDY    77  65  65 SE6       30.08S
FAIRFIELD*     PTCLDY    79  65  62 S3        30.07S HX  81
HARRISBURG*    MOCLDY    79  65  62 S5        30.09S HX  81
ROBINSON*      PTCLDY    80  62  53 SE6       30.10R HX  82
CARMI*         PTCLDY    79  61  53 SE5       30.08R HX  80
$$

ABBREVIATIONS USED IN REMARKS
   TC - TEMPERATURE IN CELSIUS
  WCI - WIND CHILL INDEX
   HX - HEAT INDEX
  VSB - VISIBILITY
$$



USA.gov is the U.S. government's official web portal to all federal, state and local government web resources and services.